sat.trackr.live / text

‹ back to catalog

STARLINK-3592

NORAD 51801 · 2022-017AK

PAYLOAD ACTIVE UNKNOWN

§ Identity

Operator
Country
US
Launch date
2022-02-25
Launch site
AFWTR
Launch vehicle
Mass (kg)
RCS (m²)

Purposes: comms

External: N2YO · Heavens-Above · Gunter

§ Orbital elements

Epoch: 2026-05-24T23:52:24.582144Z

Period
95.44 min
Inclination
53.2135°
Eccentricity
0.0001460
Mean motion
15.08838770 rev/d
Perigee alt
538.7 km
Apogee alt
540.8 km
Semi-major
6,917.9 km
B*
5.2964e-5
RAAN
6.5742°
Arg perigee
98.2786°
Mean anomaly
261.8371°
Rev number
23,544

§ Raw data

STARLINK-35921 51801U 22017AK  26144.99472896  .00000555  00000+0  52964-4 0  99922 51801  53.2135   6.5742 0001460  98.2786 261.8371 15.08838770235444

JSON: /api/v1/satellites/51801 · /tle

For live sub-satellite position, see the globe view (requires WebGL).

§ Visibility from observer

Set your observer location to see the next 7 days of passes ≥ 10°. The values pass through the URL so the page stays shareable.

No JS? Fill the form by hand. The geolocation button needs JavaScript.